Preview of NWS' New Version of Forecast
This preview is not operational and should not be used for support decisions.

Regional Weather Roundup (RWR)

Issued by National Weather Service (NWS)

                            
000
ASUS45 KBOU 200910
RWRCO 

WEATHER ROUNDUP FOR COLORADO
NATIONAL WEATHER SERVICE DENVER/BOULDER CO
300 AM MDT SAT APR 20 2019

NOTE: "FAIR" INDICATES FEW OR NO CLOUDS BELOW 12000 FEET WITH NO
SIGNIFICANT WEATHER AND/OR OBSTRUCTIONS TO VISIBILITY.

COZ001>005-013-030-031-201000-
...NORTHWEST COLORADO...
  
CITY           SKY/WX    TMP DP  RH WIND       PRES   REMARKS
CRAIG          FAIR      33  28  81 CALM      30.05F                  
HAYDEN         FAIR      41  28  60 E14       30.07F                  
MEEKER         FAIR      35  25  66 CALM      30.06F                  
RANGELY        FAIR      39  31  71 CALM      29.99F                  
RABBIT EARS PA FAIR      37  18  44 SW7       30.24F                  
STEAMBOAT SPGS FAIR      36  28  72 CALM      30.10S                  
WALDEN         FAIR      36  21  55 S5        30.13F                  
$$

COZ006>008-011-201000-
...WEST CENTRAL VALLEYS...
  
CITY           SKY/WX    TMP DP  RH WIND       PRES   REMARKS
GRAND JUNCTION FAIR      49  27  42 E15       29.98F                  
MONTROSE       FAIR      46  22  38 S7        30.07F                  
EAGLE          FAIR      36  24  62 CALM      30.14F                  
RIFLE          FAIR      40  24  53 CALM      30.05F                  
DELTA          FAIR      46  27  46 E6        30.04F                  
NUCLA          FAIR      46  21  36 SE5       30.08F                  
$$

COZ017>023-064>068-201000-
...SOUTHWEST COLORADO...
  
CITY           SKY/WX    TMP DP  RH WIND       PRES   REMARKS
DURANGO        FAIR      38  20  48 N7        30.12F                  
CORTEZ         FAIR      36  27  69 NE6       30.07F                  
PAGOSA SPRINGS FAIR      37  25  62 CALM      30.19F                  
TELLURIDE      FAIR      39  19  45 SE7       30.26F                  
WOLF CREEK PAS FAIR      34  10  37 SW14G20   30.42F WCI  24          
$$

COZ009-010-012-014-032>034-037-058>063-201000-
...CENTRAL COLORADO...
  
CITY           SKY/WX    TMP DP  RH WIND       PRES   REMARKS
ASPEN          FAIR      38  22  52 S9        30.14F                  
BUENA VISTA    FAIR      35  21  56 W3        30.17F                  
COPPER MTN     FAIR      37  10  32 SW17G24   30.34F                  
BERTHOUD PASS  FAIR      32  21  64 W32G40    30.31F WCI  17          
COTTONWOOD PAS FAIR      46   5  18 W12G20    30.24F                  
GUNNISON       FAIR      31  26  82 E3        30.21F                  
GRANBY         FAIR      29  23  79 CALM      30.18F                  
KREMMLING      FAIR      30  25  80 CALM      30.16F                  
LEADVILLE      FAIR      27  17  66 VRB5      30.24F WCI  22          
MONARCH PASS   FAIR      34  16  47 W21       30.45F WCI  22          
SALIDA         FAIR      42  21  43 W6        30.22F                  
SUNLIGHT       FAIR      34  18  51 SW10G16   30.31F WCI  26          
WILKERSON PASS FAIR      36  14  41 W10G21    30.31F                  
$$

COZ069>075-201000-
...SAN LUIS VALLEY/SANGRE DE CRISTO MOUNTAINS...
  
CITY           SKY/WX    TMP DP  RH WIND       PRES   REMARKS
ALAMOSA        FAIR      33  18  53 VRB3      30.15F                  
DEL NORTE      FAIR      42  20  41 W8        30.18F                  
LA VETA PASS   NOT AVBL                                               
SAGUACHE       FAIR      41  19  42 CALM      30.17S                  
$$

COZ035-036-038>040-201000-
...NORTHERN COLORADO FRONT RANGE...
  
CITY           SKY/WX    TMP DP  RH WIND       PRES   REMARKS
DENVER INTL AP FAIR      52  29  41 SW14      29.94F                  
AURORA         PTCLDY    52  28  40 S14       29.96F                  
FRONT RANGE AP FAIR      51  32  48 S13       29.95F                  
ERIE MUNI ARPT FAIR      42  31  66 CALM      29.99F                  
BOULDER MUN AP FAIR      52  27  37 S3        29.93F                  
CENTENNIAL     FAIR      52  27  38 S8        29.98F                  
BROOMFIELD     FAIR      52  27  37 S6        29.96F                  
FORT COLLINS   FAIR      47  32  56 N6        29.94F                  
LONGMONT       FAIR      45  33  62 SW3       29.95F                  
$$

COZ041-046-047-076>085-087-088-201000-
...PIKES PEAK/PALMER DIVIDE AND SOUTHERN FOOTHILLS...
  
CITY           SKY/WX    TMP DP  RH WIND       PRES   REMARKS
COLO. SPRINGS  FAIR      43  28  55 NE9       30.04F                  
A. F. ACADEMY  FAIR      37  27  68 N7        30.04F                  
SCHRIEVER AFB  NOT AVBL                                               
CHEYENNE MTN   FAIR      50  22  34 NW5       30.01F                  
ELLICOTT         N/A      1 N/A N/A CALM      30.03F                  
FALCON         FAIR      43  25  48 W6        30.07F                  
FORT CARSON    FAIR      44  28  53 NW8       30.02F                  
LIMON          FAIR      35  30  82 NE6       29.99F WCI  30          
MONUMENT HILL  FAIR      45  28  53 S13       30.07F                  
CANON CITY     NOT AVBL                                               
WALSENBURG     NOT AVBL                                               
TRINIDAD       FAIR      54  31  41 W18       30.01F                  
$$

COZ042>045-048>051-090-091-201000-
...NORTHEAST COLORADO...
  
CITY           SKY/WX    TMP DP  RH WIND       PRES   REMARKS
GREELEY ARPT   FAIR      39  30  70 NW5       29.92F                  
AKRON          FAIR      54  32  43 SW15      29.93F                  
BURLINGTON     FAIR      48  32  53 SW10      29.96F                  
WRAY           FAIR      48  32  53 W13       29.91F                  
YUMA           NOT AVBL                                               
STERLING       FAIR      39  36  87 S7        29.90F                  
HOLYOKE        FAIR      43  37  81 SW3       29.90F                  
FORT MORGAN    NOT AVBL                                               
$$

COZ086-089-092>099-201000-
...SOUTHEAST COLORADO...
  
CITY           SKY/WX    TMP DP  RH WIND       PRES   REMARKS
PUEBLO         FAIR      45  28  51 W3        29.98F                  
LA JUNTA       FAIR      48  32  53 MISG      29.96F                  
LAMAR          FAIR      45  33  63 CALM      29.92F                  
SPRINGFIELD      N/A     39  33  79 SW8       29.99F                  
$$